Starlink 11724

operational
NORAD ID: 64124 Int'l Des: 2025-111 Owner: SPXS Country: US Constellation: starlink
LEOCIRCULAR

Starlink 11724について

説明を読み込み中...

リアルタイム位置

3D地球を読み込み中...

次回通過

高度履歴

Altitude vs Time

uPlot chart will show altitude changes over time

軌道要素

1 64124U 25111B 25261.14477583 .00184317 00000-0 14016-2 0 9990
2 64124 42.9995 293.7733 0000819 213.6827 146.3989 15.70953346 19506
Epoch: Sep 18, 2025 • Age: 23 hours

現在のステータス

高度 355.6 km
速度 7.70 km/s
衛星直下点 -1.71°S, 107.29°W
打ち上げ日 May 24, 2025
運用期間 0.3 years
タイプ internet

技術仕様

分類 Payload
質量 960.00 kg
乾燥質量 910.00 kg
総質量 960.00 kg
長さ 0.30 m
直径 4.10 m
スパン 29.00 m
形状 Box + pan
製造者 SPXS
バスタイプ Starlink V2MD
フェーズステータス In Orbit
所有者/国 SPXS/US

大規模コンステレーション

Loading constellations...